P/2013 W1 ( PanSTARRS ) 2020

Japanese version
Home page
Updated on November 4, 2020

---------------------------------------------------------------------

* Profile

* Orbital Elements

Epoch 2020 Sept. 28.0 TT = JDT 2459120.5
T 2020 Sept. 10.31066 TT                                MPCW
q   1.4213891            (2000.0)            P               Q
n   0.15109244     Peri.    1.29517     -0.48692323     -0.87044067
a   3.4911959      Node   117.84779     +0.80063211     -0.47792042
e   0.5928647      Incl.    4.69546     +0.34913319     -0.11800469
P   6.52
From 92 observations 2013 Nov. 9-2014 Mar. 3, mean residual 0".5.

* Magnitudes Graph

        m1 = 17.5 + 5 log d + 10.0 log r

---------------------------------------------------------------------

The orbital elements are published on M.P.E.C. 2014-Y44.
The magnitudes graphs are made with Comet for Windows.

---------------------------------------------------------------------

Copyright(C) Seiichi Yoshida (comet@aerith.net). All rights reserved.